IRIDIUM 33 DEB, 38228

Orbit data source: Space-Track

IRIDIUM 33 DEB, 38228 is space debris in LEO originally from a launch on Sun, 14 Sep 1997 UTC launched from the Tyuratam Missile And Space Complex (TTMTR). The debris from Iridium 33, an American commercial communications satellite, has been tracked extensively since its accidental collision with the defunct Russian satellite Cosmos 2251 in 2009. This event, occurring at high speed in low Earth orbit (LEO), generated thousands of pieces of space debris, significantly increasing the risk of further collisions. The Iridium 33 debris cloud has impacted space traffic management and orbital debris mitigation strategies, making it a subject of ongoing study in space situational awareness.

Loading next visibility...
Identifier
38228, 1997-051ZC
Orbit
LEO
Country
Flag of USUS
Related business
Manufacturer
Unknown
Mission
Spacecraft
Bus & Motor
Unknown
Mass
Unknown
Launch date (UTC)
1997-09-14 (29 years ago)
Launch vehicle
Unknown
Launch site
Tyuratam Missile And Space Complex (TTMTR)
Object type
Payload
Rocket body
Debris
Shape & HBR
Unknown shape, 0.055 m
Radar Cross Section
Small (<0.1 m²)

Expand to show TLE details & history
Last TLE update: 2 days ago

TLE from 2 days ago
0 IRIDIUM 33 DEB
1 38228U 97051ZC  26265.38282675  .00000436  00000-0  16579-3 0  9991
2 38228  86.2894 287.8513 0063496 359.3504  64.1483 14.27690819888280
Epoch: 2026-09-22T09:11Z
TLE epoch observation values (Epoch: 2026-09-22T09:11:16.231Z)
Latitude
63.99694°
Longitude
156.38379°
Altitude
790.923 km
Speed
7.474 km/s
True Right ascension
19h 41m 48s
True Declination
63° 51' 42"
Sunlit
Object was in daylight at epoch
Visualization orbit readout
Latitude
Unknown
Longitude
Unknown
Altitude
Unknown
Speed
Unknown
Apparent Right ascension
Unknown
Apparent Declination
Unknown
Sunlit
N/A
Visualization observer readout
Local Sidereal Time
11:33:26
Azimuth
Unknown
Elevation
Unknown
Doppler factor
Unknown
Orbital elements
Apogee altitude
841.991 km
Perigee altitude
750.88 km
Semi-major axis
7,174.573 km
Eccentricity
0.00635
Inclination
86.2894°
RAAN
287.8513°
Arg. of periapsis
359.3504°
True anomaly
64.80535°
Mean anomaly
64.1483°
Eccentric anomaly
64.4766°
Mean motion
3.57149 °/min
Orbital period
100.8 mins
BSTAR
0.00016579

Documentation

Showing up to 5 results
|